Location: Newark
(29.9790°N, 31.1340°E)
Time: 13:37:43
(UTC+00:00)

Vanguard 3 - Pass Details

Date: 26 January 2020
Orbit: 508 x 3263 km, 33.3° (Epoch: 24 February)

Event Time Altitude Azimuth Distance (km) Brightness Sun altitude
Rises 19:11:59 0° 284° (WNW) 7,169 12.6 -48.6°
Reaches altitude 10° 19:17:06 10° 285° (WNW) 5,992 12.0 -49.7°
Enters shadow 19:31:14 60° 285° (WNW) 2,741 9.6 -52.8°
